Location: Emory University Observatory
(33.7903°N, 84.3267°W)
Time: 16:41:45
(UTC-05:00)

Hubble Space Telescope - Pass Details

Date: 10 October 2017
Orbit: 537 x 541 km, 28.5° (Epoch: 17 December)

Event Time Altitude Azimuth Distance (km) Brightness Sun altitude
Exits shadow 05:08:35 13° 124° (SE) 1,609 3.6 -31.8°
Drops below altitude 10° 05:09:05 10° 121° (ESE) 1,786 3.9 -31.7°
Sets 05:11:28 0° 113° (ESE) 2,677 5.1 -31.2°
